TimeEST,TemperatureF,Dew PointF,Humidity,Sea Level PressureIn,VisibilityMPH,Wind Direction,Wind SpeedMPH,Gust SpeedMPH,PrecipitationIn,Events,Conditions,WindDirDegrees,DateUTC
12:51 AM,28.9,21.0,72,29.77,10.0,WSW,5.8,-,0.00,,Overcast,250,2014-01-19 05:51:00
1:51 AM,28.9,21.9,75,29.75,10.0,NW,4.6,-,N/A,,Mostly Cloudy,310,2014-01-19 06:51:00
2:51 AM,28.0,21.0,75,29.77,10.0,West,6.9,-,N/A,,Mostly Cloudy,270,2014-01-19 07:51:00
3:51 AM,28.0,21.0,75,29.75,10.0,West,4.6,-,N/A,,Mostly Cloudy,270,2014-01-19 08:51:00
4:51 AM,28.0,21.0,75,29.75,10.0,WSW,5.8,-,N/A,,Mostly Cloudy,240,2014-01-19 09:51:00
5:51 AM,28.0,21.0,75,29.74,10.0,WSW,6.9,-,N/A,,Overcast,250,2014-01-19 10:51:00
6:33 AM,28.0,21.0,75,29.73,10.0,WSW,5.8,-,N/A,,Overcast,240,2014-01-19 11:33:00
6:51 AM,28.0,21.0,75,29.74,10.0,WSW,6.9,-,N/A,,Overcast,240,2014-01-19 11:51:00
7:28 AM,27.0,21.0,78,29.74,2.5,SW,8.1,-,0.00,Snow,Light Snow,230,2014-01-19 12:28:00
7:37 AM,27.0,21.9,81,29.73,1.0,SW,5.8,-,0.00,Snow,Light Snow,230,2014-01-19 12:37:00
7:51 AM,27.0,21.9,81,29.73,1.8,SW,4.6,-,0.01,Snow,Light Snow,220,2014-01-19 12:51:00
7:57 AM,27.0,21.9,81,29.72,2.0,South,3.5,-,0.00,Snow,Light Snow,180,2014-01-19 12:57:00
8:05 AM,27.0,23.0,85,29.72,4.0,South,5.8,-,0.00,Snow,Light Snow,180,2014-01-19 13:05:00
8:51 AM,27.0,21.9,81,29.72,5.0,SSW,10.4,-,0.00,Snow,Light Snow,210,2014-01-19 13:51:00
9:40 AM,28.0,19.9,72,29.73,10.0,SW,15.0,21.9,0.00,,Mostly Cloudy,220,2014-01-19 14:40:00
9:51 AM,28.0,19.9,72,29.73,10.0,SW,13.8,-,0.00,,Mostly Cloudy,230,2014-01-19 14:51:00
10:30 AM,28.9,19.0,67,29.71,10.0,SW,11.5,23.0,N/A,,Mostly Cloudy,230,2014-01-19 15:30:00
10:51 AM,28.9,18.0,64,29.71,10.0,SW,12.7,26.5,N/A,,Mostly Cloudy,230,2014-01-19 15:51:00
11:51 AM,30.0,17.1,59,29.68,10.0,WSW,17.3,21.9,N/A,,Mostly Cloudy,240,2014-01-19 16:51:00
12:51 PM,32.0,18.0,56,29.62,10.0,SSW,17.3,24.2,N/A,,Mostly Cloudy,210,2014-01-19 17:51:00
1:51 PM,32.0,19.0,59,29.59,10.0,WSW,15.0,-,N/A,,Scattered Clouds,240,2014-01-19 18:51:00
2:51 PM,34.0,19.9,56,29.59,10.0,WSW,19.6,26.5,N/A,,Scattered Clouds,240,2014-01-19 19:51:00
3:51 PM,33.1,19.0,56,29.59,10.0,WSW,16.1,21.9,N/A,,Mostly Cloudy,240,2014-01-19 20:51:00
4:51 PM,32.0,19.0,59,29.59,10.0,SW,10.4,20.7,N/A,,Mostly Cloudy,220,2014-01-19 21:51:00
5:51 PM,32.0,19.0,59,29.59,10.0,SW,12.7,-,N/A,,Mostly Cloudy,220,2014-01-19 22:51:00
6:51 PM,32.0,18.0,56,29.61,10.0,WSW,13.8,-,N/A,,Overcast,240,2014-01-19 23:51:00
7:51 PM,32.0,18.0,56,29.62,10.0,SW,10.4,-,N/A,,Overcast,220,2014-01-20 00:51:00
8:51 PM,32.0,19.0,59,29.61,10.0,SW,13.8,-,N/A,,Overcast,220,2014-01-20 01:51:00
9:51 PM,32.0,19.0,59,29.61,10.0,SW,11.5,-,N/A,,Partly Cloudy,220,2014-01-20 02:51:00
10:51 PM,30.9,19.9,64,29.60,10.0,South,11.5,-,N/A,,Mostly Cloudy,190,2014-01-20 03:51:00
11:51 PM,30.9,19.9,64,29.58,10.0,South,10.4,-,N/A,,Mostly Cloudy,190,2014-01-20 04:51:00